Regional Weather Roundup
Issued by NWS Cleveland, OH

Home | Current Version | Previous Version | Graphics & Text | Print | Product List | Glossary On
Versions: 1 2 3 4 5 6 7 8 9 10 11 12 13 14 15 16 17 18 19 20 21 22 23 24 25 26 27 28 29 30 31 32 33 34 35 36 37 38 39 40 41 42 43 44 45 46 47 48 49 50
000
ASUS41 KCLE 050110
RWRCLE
OHIO REGIONAL WEATHER ROUNDUP
NATIONAL WEATHER SERVICE WILMINGTON, OH
900 PM EDT TUE AUG 04 2015

NOTE: "FAIR" INDICATES FEW OR NO CLOUDS BELOW 12,000 FEET WITH NO
SIGNIFICANT WEATHER AND/OR OBSTRUCTIONS TO VISIBILITY.

OHZ001>008-015>018-024>027-034-035-043-044-050200-
   NORTHWEST OHIO

CITY           SKY/WX    TMP DP  RH WIND       PRES   REMARKS
DEFIANCE       MOCLDY    74  56  53 CALM      29.97R
FINDLAY        MOCLDY    71  62  73 SW3       29.96R
TOLEDO EXPRESS PTCLDY    72  57  59 W6        29.95R
TOLEDO EXEC    PTCLDY    73  56  54 W8        29.96R
LIMA           PTCLDY    71  60  68 W5        29.98R
$$

OHZ009>014-019>023-028>033-038-089-050200-
   NORTHEAST OHIO

CITY           SKY/WX    TMP DP  RH WIND       PRES   REMARKS
CLE-HOPKINS    MOCLDY    74  58  57 SW3       29.96S
CLE-LAKEFRONT  PTCLDY    75  60  59 W8        29.93R
CUY CO. ARPT   MOCLDY    72  61  68 W7        29.95S
LORAIN-ELYRIA  PTCLDY    68  63  84 SW3       29.96R
ASHTABULA      CLEAR     70  56  61 CALM      29.96R
AKRON-CANTON   MOCLDY    73  55  53 W5        29.97R
WOOSTER        MOCLDY    67  60  78 W3        29.98R
MANSFIELD      MOCLDY    70  59  68 SW3       29.99R
YOUNGSTOWN     MOCLDY    69  55  60 CALM      29.96R
$$

OHZ042-051>053-060>062-070>072-077>081-050200-
  SOUTHWEST OHIO

CITY           SKY/WX    TMP DP  RH WIND       PRES   REMARKS
CINC-COVINGTON CLOUDY    72  62  71 W5        30.00R
CINC-LUNKEN    PTCLDY    70  65  84 CALM      29.99R
HAMILTON       PTCLDY    69  66  90 CALM      29.99S
DAYTON         MOCLDY    72  59  63 NW6       30.01R
WRIGHT-PAT AFB MOCLDY    74  58  55 W6        29.99R
DAYTON GENERAL MOCLDY    76  59  55 W3        30.00R
WILMINGTON     PTCLDY    72  60  66 SW5       30.01R
$$

OHZ036-037-039>041-045>050-054>059-063>069-073>076-082>088-050200-
  CENTRAL AND SOUTHEAST OHIO

CITY           SKY/WX    TMP DP  RH WIND       PRES   REMARKS
COLUMBUS       CLOUDY    75  55  49 NW6       29.98R
OSU AIRPORT    MOCLDY    72  57  59 W6        29.98R
BOLTON FIELD   MOCLDY    69  64  84 CALM      29.99S
RICKENBACK AFB MOCLDY    74  58  58 NW3       29.98R
NEWARK         PTCLDY    72  59  63 CALM      29.98R
MARION         MOCLDY    72  58  61 W5        29.98R
LANCASTER      MOCLDY    70  62  76 W3        29.98R
ZANESVILLE     PTCLDY    73  56  54 W3        29.98R
NEW PHILLY     MOCLDY    67  62  84 CALM      29.97R
$$



USA.gov is the U.S. government's official web portal to all federal, state and local government web resources and services.